User: anonymous   Login
Location: Unspecified
(0.0000°N, 0.0000°E)
Time: 03:28:01
(UTC+00:00)
Language:

USA 32 - Orbit

View from above orbital plane
View from above orbital plane
View from above satellite
View from above satellite

Ground track
Ground track

The orbit data is extracted from the following two-line orbital elements,

1 19460U 88078A   17170.88333951 0.00000050  00000-0  18147-4 0    00
2 19460  84.9882 220.4289 0001000 220.9664 139.0335 14.33417893    05
Epoch (UTC): 19 June 2017 21:12:00
Eccentricity: 0.0001000
inclination: 84.9882°
perigee height: 779 km
apogee height: 781 km
right ascension of ascending node: 220.4289°
argument of perigee: 220.9664°
revolutions per day: 14.33417893
mean anomaly at epoch: 139.0335°
orbit number at epoch: 0

The dashed part of the orbit path shows where the satellite is in the earth's shadow,  

DLR